• Em Portugal
  • Lista de países
  • Para 7 dias
  • Temperatura da água
  • Mapas de satélite
  • Mapa do tempo
  • Widgets de tempo
  • user-avatar
    Iniciar Sessão

    Previsão horária em Ahwaz

    Hoje, 21 Setembro, Quinta-feira

    Tempo Temperatura Precipitação Vento Pressão Humidade
    00:00 +40°C° 0 mm 4 m/s 751 mmHg 9%
    01:00 +40°C° 0 mm 4 m/s 751 mmHg 9%
    02:00 +38°C° 0 mm 4 m/s 751 mmHg 9%
    03:00 +37°C° 0 mm 3 m/s 751 mmHg 10%
    04:00 +37°C° 0 mm 3 m/s 751 mmHg 13%
    05:00 +36°C° 0 mm 3 m/s 751 mmHg 15%
    06:00 +36°C° 0 mm 3 m/s 752 mmHg 17%
    07:00 +38°C° 0 mm 4 m/s 752 mmHg 18%
    08:00 +41°C° 0 mm 4 m/s 752 mmHg 19%
    09:00 +43°C° 0 mm 5 m/s 752 mmHg 20%
    10:00 +45°C° 0 mm 5 m/s 752 mmHg 17%
    11:00 +46°C° 0 mm 5 m/s 751 mmHg 15%
    12:00 +48°C° 0 mm 4 m/s 751 mmHg 13%
    13:00 +48°C° 0 mm 4 m/s 751 mmHg 12%
    14:00 +47°C° 0 mm 3 m/s 750 mmHg 11%
    15:00 +47°C° 0 mm 2 m/s 750 mmHg 10%
    16:00 +46°C° 0 mm 3 m/s 750 mmHg 11%
    17:00 +45°C° 0 mm 3 m/s 750 mmHg 13%
    18:00 +44°C° 0 mm 3 m/s 750 mmHg 14%
    19:00 +43°C° 0 mm 3 m/s 750 mmHg 18%
    20:00 +42°C° 0 mm 4 m/s 751 mmHg 22%
    21:00 +41°C° 0 mm 4 m/s 751 mmHg 26%
    22:00 +40°C° 0 mm 4 m/s 751 mmHg 28%
    23:00 +38°C° 0 mm 4 m/s 751 mmHg 30%

    Amanhã, 22 Setembro, Sexta-feira

    Tempo Temperatura Precipitação Vento Pressão Humidade
    00:00 +37°C° 0 mm 4 m/s 751 mmHg 32%
    01:00 +37°C° 0 mm 3 m/s 751 mmHg 35%
    02:00 +36°C° 0 mm 3 m/s 751 mmHg 37%
    03:00 +35°C° 0 mm 3 m/s 751 mmHg 40%
    04:00 +35°C° 0 mm 3 m/s 752 mmHg 43%
    05:00 +34°C° 0 mm 3 m/s 752 mmHg 46%
    06:00 +34°C° 0 mm 3 m/s 752 mmHg 49%
    07:00 +36°C° 0 mm 3 m/s 753 mmHg 43%
    08:00 +38°C° 0 mm 3 m/s 753 mmHg 38%
    09:00 +41°C° 0 mm 4 m/s 753 mmHg 32%
    10:00 +42°C° 0 mm 4 m/s 753 mmHg 26%
    11:00 +44°C° 0 mm 4 m/s 753 mmHg 21%
    12:00 +45°C° 0 mm 3 m/s 752 mmHg 15%
    13:00 +46°C° 0 mm 3 m/s 752 mmHg 14%
    14:00 +46°C° 0 mm 2 m/s 752 mmHg 13%
    15:00 +47°C° 0 mm 2 m/s 751 mmHg 11%
    16:00 +46°C° 0 mm 2 m/s 751 mmHg 12%
    17:00 +44°C° 0 mm 1 m/s 751 mmHg 13%
    18:00 +43°C° 0 mm 1 m/s 751 mmHg 14%
    19:00 +42°C° 0 mm 2 m/s 751 mmHg 17%
    20:00 +42°C° 0 mm 3 m/s 752 mmHg 20%
    21:00 +40°C° 0 mm 3 m/s 752 mmHg 23%
    22:00 +39°C° 0 mm 3 m/s 752 mmHg 26%
    23:00 +39°C° 0 mm 3 m/s 753 mmHg 29%

    Depois de amanhã, 23 Setembro, Sábado

    Tempo Temperatura Precipitação Vento Pressão Humidade
    00:00 +38°C° 0 mm 3 m/s 753 mmHg 33%
    01:00 +37°C° 0 mm 3 m/s 753 mmHg 32%
    02:00 +37°C° 0 mm 3 m/s 753 mmHg 32%
    03:00 +36°C° 0 mm 3 m/s 753 mmHg 31%
    04:00 +36°C° 0 mm 3 m/s 753 mmHg 32%
    05:00 +35°C° 0 mm 3 m/s 754 mmHg 32%
    06:00 +35°C° 0 mm 2 m/s 754 mmHg 33%
    07:00 +37°C° 0 mm 3 m/s 754 mmHg 29%
    08:00 +38°C° 0 mm 3 m/s 754 mmHg 25%
    09:00 +41°C° 0 mm 4 m/s 755 mmHg 21%
    10:00 +43°C° 0 mm 4 m/s 754 mmHg 17%
    11:00 +44°C° 0 mm 4 m/s 754 mmHg 14%
    12:00 +47°C° 0 mm 4 m/s 754 mmHg 11%
    13:00 +47°C° 0 mm 4 m/s 753 mmHg 10%
    14:00 +47°C° 0 mm 4 m/s 753 mmHg 9%
    15:00 +48°C° 0 mm 4 m/s 752 mmHg 8%
    16:00 +47°C° 0 mm 4 m/s 752 mmHg 8%
    17:00 +45°C° 0 mm 3 m/s 752 mmHg 8%
    18:00 +44°C° 0 mm 3 m/s 752 mmHg 8%
    19:00 +43°C° 0 mm 3 m/s 753 mmHg 9%
    20:00 +42°C° 0 mm 4 m/s 753 mmHg 9%
    21:00 +41°C° 0 mm 4 m/s 753 mmHg 10%
    22:00 +40°C° 0 mm 4 m/s 753 mmHg 10%
    23:00 +38°C° 0 mm 4 m/s 753 mmHg 11%

    24 Setembro, Domingo

    Tempo Temperatura Precipitação Vento Pressão Humidade
    00:00 +37°C° 0 mm 3 m/s 753 mmHg 12%
    01:00 +37°C° 0 mm 3 m/s 753 mmHg 14%
    02:00 +36°C° 0 mm 3 m/s 753 mmHg 16%
    03:00 +35°C° 0 mm 3 m/s 753 mmHg 18%
    04:00 +35°C° 0 mm 3 m/s 753 mmHg 20%
    05:00 +34°C° 0 mm 3 m/s 754 mmHg 23%
    06:00 +34°C° 0 mm 2 m/s 754 mmHg 25%
    07:00 +36°C° 0 mm 3 m/s 754 mmHg 23%
    08:00 +38°C° 0 mm 3 m/s 755 mmHg 20%
    09:00 +40°C° 0 mm 3 m/s 755 mmHg 17%
    10:00 +42°C° 0 mm 3 m/s 754 mmHg 15%
    11:00 +42°C° 0 mm 2 m/s 754 mmHg 13%
    12:00 +44°C° 0 mm 1 m/s 754 mmHg 11%
    13:00 +44°C° 0 mm 1 m/s 753 mmHg 10%
    14:00 +45°C° 0 mm 1 m/s 753 mmHg 9%
    15:00 +42°C° 0 mm 0 m/s 753 mmHg 8%
    16:00 +44°C° 0 mm 1 m/s 753 mmHg 9%
    17:00 +43°C° 0 mm 1 m/s 753 mmHg 10%
    18:00 +42°C° 0 mm 1 m/s 753 mmHg 10%
    19:00 +41°C° 0 mm 2 m/s 754 mmHg 9%
    20:00 +42°C° 0 mm 3 m/s 754 mmHg 9%
    21:00 +41°C° 0 mm 4 m/s 754 mmHg 8%
    22:00 +40°C° 0 mm 4 m/s 754 mmHg 8%
    23:00 +38°C° 0 mm 3 m/s 754 mmHg 7%

    25 Setembro, Segunda-feira

    Tempo Temperatura Precipitação Vento Pressão Humidade
    00:00 +37°C° 0 mm 3 m/s 754 mmHg 7%
    01:00 +36°C° 0 mm 2 m/s 754 mmHg 7%
    02:00 +36°C° 0 mm 2 m/s 754 mmHg 8%
    03:00 +35°C° 0 mm 2 m/s 754 mmHg 8%
    04:00 +34°C° 0 mm 2 m/s 754 mmHg 9%
    05:00 +32°C° 0 mm 2 m/s 754 mmHg 10%
    06:00 +32°C° 0 mm 2 m/s 754 mmHg 10%
    07:00 +35°C° 0 mm 2 m/s 755 mmHg 9%
    08:00 +37°C° 0 mm 2 m/s 755 mmHg 8%
    09:00 +39°C° 0 mm 2 m/s 755 mmHg 7%
    10:00 +41°C° 0 mm 2 m/s 755 mmHg 6%
    11:00 +42°C° 0 mm 2 m/s 754 mmHg 5%
    12:00 +45°C° 0 mm 2 m/s 754 mmHg 4%
    13:00 +45°C° 0 mm 2 m/s 754 mmHg 4%
    14:00 +46°C° 0 mm 2 m/s 753 mmHg 3%
    15:00 +47°C° 0 mm 3 m/s 753 mmHg 3%
    16:00 +45°C° 0 mm 2 m/s 753 mmHg 3%
    17:00 +43°C° 0 mm 2 m/s 753 mmHg 3%
    18:00 +41°C° 0 mm 2 m/s 753 mmHg 4%
    19:00 +40°C° 0 mm 2 m/s 753 mmHg 4%
    20:00 +40°C° 0 mm 2 m/s 753 mmHg 4%
    21:00 +39°C° 0 mm 2 m/s 753 mmHg 5%
    22:00 +38°C° 0 mm 2 m/s 753 mmHg 6%
    23:00 +37°C° 0 mm 2 m/s 753 mmHg 6%

    26 Setembro, Terça-feira

    Tempo Temperatura Precipitação Vento Pressão Humidade
    00:00 +37°C° 0 mm 2 m/s 753 mmHg 7%
    01:00 +36°C° 0 mm 2 m/s 753 mmHg 9%
    02:00 +35°C° 0 mm 2 m/s 753 mmHg 10%
    03:00 +34°C° 0 mm 2 m/s 753 mmHg 12%
    04:00 +34°C° 0 mm 2 m/s 753 mmHg 16%
    05:00 +34°C° 0 mm 2 m/s 753 mmHg 19%
    06:00 +33°C° 0 mm 3 m/s 754 mmHg 23%
    07:00 +36°C° 0 mm 3 m/s 754 mmHg 22%
    08:00 +38°C° 0 mm 3 m/s 754 mmHg 20%
    09:00 +40°C° 0 mm 3 m/s 754 mmHg 19%
    10:00 +42°C° 0 mm 3 m/s 754 mmHg 16%
    11:00 +43°C° 0 mm 2 m/s 754 mmHg 13%
    12:00 +44°C° 0 mm 1 m/s 753 mmHg 10%
    13:00 +45°C° 0 mm 1 m/s 753 mmHg 9%
    14:00 +45°C° 0 mm 1 m/s 753 mmHg 8%
    15:00 +42°C° 0 mm 0 m/s 752 mmHg 7%
    16:00 +44°C° 0 mm 1 m/s 752 mmHg 8%
    17:00 +43°C° 0 mm 1 m/s 753 mmHg 8%
    18:00 +42°C° 0 mm 1 m/s 753 mmHg 8%
    19:00 +41°C° 0 mm 1 m/s 753 mmHg 9%
    20:00 +40°C° 0 mm 1 m/s 753 mmHg 10%
    21:00 +39°C° 0 mm 1 m/s 754 mmHg 10%
    22:00 +37°C° 0 mm 1 m/s 754 mmHg 11%
    23:00 +37°C° 0 mm 1 m/s 754 mmHg 12%
    Mostrar mais